COSMOS 2251 DEB, 47048

Orbit data source: Space-Track

COSMOS 2251 DEB, 47048 is space debris in LEO originally from a launch on Wed, 16 Jun 1993 UTC launched from the Plesetsk Missile And Space Complex (PKMTR). The debris from Iridium 33, an American commercial communications satellite, has been tracked extensively since its accidental collision with the defunct Russian satellite Cosmos 2251 in 2009. This event, occurring at high speed in low Earth orbit (LEO), generated thousands of pieces of space debris, significantly increasing the risk of further collisions. The Iridium 33 debris cloud has impacted space traffic management and orbital debris mitigation strategies, making it a subject of ongoing study in space situational awareness.

Loading next visibility...
Identifier
47048, 1993-036BXC
Orbit
LEO
Country
Flag of CISCIS
Related business
Manufacturer
Unknown
Mission
Spacecraft
Bus & Motor
Unknown
Mass
Unknown
Launch date (UTC)
1993-06-16 (33 years ago)
Launch vehicle
Unknown
Launch site
Plesetsk Missile And Space Complex (PKMTR)
Object type
Payload
Rocket body
Debris
Shape & HBR
Unknown shape, 0.050 m
Radar Cross Section
Small (<0.1 m²)

Expand to show TLE details & history
Last TLE update: 3 days ago

TLE from 3 days ago
0 COSMOS 2251 DEB
1 47048U 93036BXC 26264.37045288  .00001907  00000-0  40216-3 0  9994
2 47048  73.9780 143.0907 0129851 262.9063 216.0122 14.55023619637979
Epoch: 2026-09-21T08:53Z
TLE epoch observation values (Epoch: 2026-09-21T08:53:27.128Z)
Latitude
58.12498°
Longitude
162.13162°
Altitude
793.597 km
Speed
7.423 km/s
True Right ascension
19h 42m 59s
True Declination
57° 58' 17"
Sunlit
Object was in daylight at epoch
Visualization orbit readout
Latitude
Unknown
Longitude
Unknown
Altitude
Unknown
Speed
Unknown
Apparent Right ascension
Unknown
Apparent Declination
Unknown
Sunlit
N/A
Visualization observer readout
Local Sidereal Time
18:51:15
Azimuth
Unknown
Elevation
Unknown
Doppler factor
Unknown
Orbital elements
Apogee altitude
798.895 km
Perigee altitude
614.896 km
Semi-major axis
7,085.032 km
Eccentricity
0.01299
Inclination
73.978°
RAAN
143.0907°
Arg. of periapsis
262.9063°
True anomaly
215.14871°
Mean anomaly
216.0122°
Eccentric anomaly
215.57932°
Mean motion
3.63941 °/min
Orbital period
98.92 mins
BSTAR
0.00040216

Documentation

Showing up to 5 results
|